| time (UTC) | temp F | wind direction | speed MPH | gust MPH | rain 1hr in | rain 24hr in | rain mn in | humidity % | barometer mb |
| 20260906024503 | 52 | 278 | 8.0 | 13.0 | 0.00 | 0.10 | 0.00 | 97 | 1010.0 |
| 20260906023004 | 52 | 280 | 7.0 | 15.0 | 0.00 | 0.10 | 0.00 | 97 | 1009.7 |
| 20260906021504 | 52 | 276 | 9.0 | 14.0 | 0.00 | 0.10 | 0.00 | 97 | 1009.6 |
| 20260906020004 | 52 | 284 | 6.0 | 13.0 | 0.00 | 0.10 | 0.00 | 97 | 1009.5 |
| 20260906014505 | 51 | 278 | 7.0 | 17.0 | 0.00 | 0.10 | 0.00 | 97 | 1009.1 |
| 20260906013004 | 51 | 273 | 9.0 | 15.0 | 0.00 | 0.10 | 0.00 | 97 | 1008.9 |
| 20260906011503 | 51 | 283 | 7.0 | 13.0 | 0.00 | 0.10 | 0.00 | 97 | 1008.5 |
| 20260906010004 | 51 | 271 | 6.0 | 12.0 | 0.00 | 0.10 | 0.00 | 97 | 1008.5 |
| 20260906004503 | 51 | 276 | 7.0 | 13.0 | 0.00 | 0.10 | 0.00 | 97 | 1008.2 |
| 20260906001504 | 51 | 284 | 7.0 | 13.0 | 0.00 | 0.11 | 0.00 | 97 | 1007.5 |
| 20260906000003 | 51 | 272 | 6.0 | 13.0 | 0.00 | 0.11 | 0.00 | 97 | 1007.4 |
| 20260905233004 | 51 | 276 | 7.0 | 12.0 | 0.00 | 0.11 | 0.00 | 97 | 1006.9 |
| 20260905231504 | 52 | 276 | 5.0 | 12.0 | 0.00 | 0.11 | 0.00 | 97 | 1006.7 |
| 20260905230004 | 52 | 278 | 6.0 | 12.0 | 0.00 | 0.11 | 0.00 | 97 | 1006.2 |
| 20260905224504 | 52 | 286 | 6.0 | 12.0 | 0.00 | 0.11 | 0.00 | 97 | 1006.1 |
| 20260905223004 | 52 | 280 | 6.0 | 9.0 | 0.00 | 0.11 | 0.00 | 96 | 1005.7 |
| 20260905221504 | 52 | 279 | 6.0 | 9.0 | 0.00 | 0.11 | 0.00 | 97 | 1005.5 |
| 20260905220004 | 52 | 275 | 6.0 | 10.0 | 0.00 | 0.12 | 0.00 | 96 | 1005.3 |
| 20260905214504 | 52 | 265 | 6.0 | 10.0 | 0.00 | 0.12 | 0.10 | 96 | 1005.0 |
| 20260905213004 | 52 | 267 | 5.0 | 10.0 | 0.00 | 0.12 | 0.10 | 96 | 1004.5 |
| 20260905211504 | 52 | 265 | 5.0 | 9.0 | 0.00 | 0.12 | 0.10 | 96 | 1004.5 |
| 20260905204504 | 52 | 260 | 4.0 | 7.0 | 0.00 | 0.12 | 0.10 | 96 | 1004.5 |
| 20260905203004 | 52 | 244 | 5.0 | 7.0 | 0.00 | 0.12 | 0.10 | 96 | 1004.3 |
| 20260905201503 | 53 | 242 | 5.0 | 6.0 | 0.00 | 0.13 | 0.10 | 96 | 1004.2 |
| 20260905200003 | 54 | 245 | 5.0 | 6.0 | 0.00 | 0.14 | 0.10 | 96 | 1004.1 |
| 20260905193004 | 54 | 236 | 6.0 | 8.0 | 0.10 | 0.15 | 0.10 | 96 | 1004.1 |
| 20260905191504 | 54 | 239 | 7.0 | 8.0 | 0.10 | 0.15 | 0.10 | 96 | 1004.4 |
| 20260905153004 | 58 | 289 | 3.0 | 10.0 | 0.10 | 0.15 | 0.10 | 86 | 1002.7 |
| 20260905151503 | 60 | 304 | 7.0 | 22.0 | 0.05 | 0.10 | 0.05 | 79 | 1001.9 |
| 20260905144503 | 66 | 301 | 12.0 | 24.0 | 0.00 | 0.05 | 0.00 | 68 | 1001.4 |
| 20260905140004 | 68 | 265 | 14.0 | 25.0 | 0.00 | 0.05 | 0.00 | 65 | 1001.2 |
| 20260905134504 | 65 | 270 | 9.0 | 17.0 | 0.00 | 0.06 | 0.00 | 74 | 1001.0 |
| 20260905131503 | 68 | 283 | 10.0 | 21.0 | 0.00 | 0.06 | 0.00 | 66 | 1000.8 |
| 20260905130004 | 69 | 248 | 16.0 | 28.0 | 0.00 | 0.06 | 0.00 | 63 | 1000.6 |
| 20260905124503 | 69 | 257 | 11.0 | 30.0 | 0.00 | 0.06 | 0.00 | 62 | 1000.6 |
| 20260905123004 | 69 | 265 | 11.0 | 24.0 | 0.00 | 0.06 | 0.00 | 64 | 1000.4 |
| 20260905121504 | 68 | 262 | 14.0 | 26.0 | 0.00 | 0.06 | 0.00 | 65 | 1000.3 |
| 20260905114504 | 68 | 247 | 10.0 | 20.0 | 0.00 | 0.06 | 0.00 | 70 | 1000.4 |
| 20260905113004 | 67 | 257 | 14.0 | 26.0 | 0.00 | 0.06 | 0.00 | 71 | 1000.3 |
| 20260905111503 | 64 | 267 | 7.0 | 20.0 | 0.00 | 0.06 | 0.00 | 78 | 1000.2 |
| 20260905110004 | 65 | 269 | 16.0 | 26.0 | 0.00 | 0.06 | 0.00 | 71 | 1000.0 |
| 20260905103003 | 64 | 269 | 9.0 | 18.0 | 0.00 | 0.06 | 0.00 | 79 | 999.9 |
| 20260905101503 | 64 | 253 | 7.0 | 21.0 | 0.00 | 0.06 | 0.00 | 78 | 999.7 |
| 20260905100004 | 64 | 277 | 12.0 | 26.0 | 0.00 | 0.06 | 0.00 | 80 | 999.7 |
| 20260905094504 | 62 | 256 | 8.0 | 17.0 | 0.00 | 0.06 | 0.00 | 80 | 999.5 |
| 20260905093003 | 64 | 287 | 8.0 | 22.0 | 0.00 | 0.06 | 0.00 | 76 | 999.4 |
| 20260905091503 | 64 | 268 | 9.0 | 21.0 | 0.00 | 0.06 | 0.00 | 80 | 999.4 |
| 20260905090003 | 64 | 273 | 12.0 | 21.0 | 0.00 | 0.06 | 0.00 | 77 | 999.3 |
| 20260905084503 | 63 | 274 | 12.0 | 23.0 | 0.00 | 0.06 | 0.00 | 81 | 999.1 |
| 20260905081503 | 60 | 272 | 9.0 | 17.0 | 0.00 | 0.06 | 0.00 | 89 | 998.9 |
| 20260905074504 | 60 | 270 | 7.0 | 20.0 | 0.00 | 0.06 | 0.00 | 90 | 998.6 |
| 20260905073004 | 58 | 280 | 6.0 | 17.0 | 0.00 | 0.06 | 0.00 | 94 | 998.4 |
| 20260905071504 | 57 | 247 | 7.0 | 13.0 | 0.00 | 0.06 | 0.00 | 95 | 998.0 |
| 20260905070004 | 57 | 242 | 4.0 | 10.0 | 0.00 | 0.06 | 0.00 | 95 | 998.0 |
| 20260905064504 | 56 | 252 | 6.0 | 12.0 | 0.00 | 0.06 | 0.00 | 95 | 998.0 |
| 20260905063004 | 56 | 253 | 2.0 | 13.0 | 0.00 | 0.06 | 0.00 | 95 | 997.9 |
| 20260905061504 | 56 | 246 | 6.0 | 10.0 | 0.00 | 0.06 | 0.00 | 95 | 997.4 |
| 20260905060003 | 56 | 254 | 3.0 | 10.0 | 0.00 | 0.06 | 0.00 | 95 | 997.4 |
| 20260905054503 | 56 | 257 | 4.0 | 12.0 | 0.00 | 0.06 | 0.00 | 96 | 997.4 |
| 20260905051504 | 54 | 259 | 9.0 | 16.0 | 0.00 | 0.06 | 0.00 | 97 | 997.2 |
| 20260905050004 | 54 | 252 | 8.0 | 17.0 | 0.00 | 0.06 | 0.00 | 97 | 997.2 |
| 20260905044503 | 54 | 258 | 6.0 | 13.0 | 0.00 | 0.06 | 0.00 | 97 | 996.7 |
| 20260905043003 | 54 | 246 | 7.0 | 12.0 | 0.00 | 0.06 | 0.00 | 97 | 996.7 |
| 20260905041504 | 54 | 261 | 6.0 | 10.0 | 0.00 | 0.06 | 0.00 | 97 | 996.6 |
| 20260905040003 | 54 | 257 | 5.0 | 10.0 | 0.00 | 0.06 | 0.00 | 97 | 996.5 |
| 20260905034504 | 54 | 258 | 5.0 | 9.0 | 0.00 | 0.06 | 0.00 | 97 | 996.0 |
| 20260905033004 | 54 | 253 | 5.0 | 8.0 | 0.00 | 0.06 | 0.00 | 97 | 996.0 |
| 20260905031504 | 54 | 250 | 5.0 | 9.0 | 0.00 | 0.06 | 0.00 | 97 | 996.0 |